Location: ???? ??
(36.0534°N, 43.5630°E)
Time: 08:48:38
(UTC+00:00)

Cosmos 2219 - Pass Details

Date: 18 September 2019
Orbit: 834 x 860 km, 71.1° (Epoch: 17 October)

Event Time Altitude Azimuth Distance (km) Brightness Sun altitude
Rises 17:17:19 0° 220° (SW) 3,418 6.6 -26.0°
Reaches altitude 10° 17:19:54 10° 228° (SW) 2,487 5.9 -26.4°
Maximum altitude 17:25:16 40° 297° (WNW) 1,244 4.5 -27.4°
Drops below altitude 10° 17:30:39 10° 7° (N) 2,499 5.8 -28.4°
Sets 17:33:16 0° 14° (NNE) 3,437 6.5 -28.9°
